Weather History for Tuxtla Gutierrez, Mexico

Change the Weather History Date:

Friday, April 12, 2013

  Actual Average Record
Temperature  
Mean Temperature 80 °F -  
Max Temperature 101 °F 81 °F 102 °F (2007)
Min Temperature 60 °F 62 °F 57 °F (2003)
Cooling Degree Days 16    
Growing Degree Days 30 (Base 50)    
Moisture  
Dew Point 59 °F    
Average Humidity 45    
Maximum Humidity 71    
Minimum Humidity 18    
Precipitation  
Precipitation 0.00 in - - ()
Sea Level Pressure  
Sea Level Pressure 29.77 in    
Wind  
Wind Speed 4 mph ()    
Max Wind Speed 21 mph    
Max Gust Speed 25 mph    
Visibility 6.8 miles    
Events      
Averages and records for this station are not official NWS values.
T = Trace of Precipitation, MM = Missing Value Source: Averaged Metar Reports

Daily Weather History Graph

Daily Weather History Graph

Search for Another Location

Airport:

Trip Planner

Search our weather history database for the weather conditions in past years. The results will help you decide how hot, cold, wet, or windy it might be!

Date:

Astronomy

Apr. 12, 2013 Rise Set
Actual Time 6:58 AM CDT 7:27 PM CDT
Civil Twilight 6:36 AM CDT 7:48 PM CDT
Nautical Twilight 6:11 AM CDT 8:14 PM CDT
Astronomical Twilight 5:45 AM CDT 8:40 PM CDT
Moon 8:28 AM CDT (4/12) 9:36 PM CDT (4/12)
Length of Visible Light 13h 12m
Length of Day
12h 28m
Waxing Crescent, 5% of the Moon is Illuminated
Apr 12
Waxing Crescent
Apr 18
First Quarter
Apr 25
Full
May 2
Last Quarter
May 9
New

Hourly Weather History & Observations

Time (CDT) Temp. Heat Index Dew Point Humidity Pressure Visibility Wind Dir Wind Speed Gust Speed Precip Events Conditions
12:40 AM 75 °F - 66 °F 65% 29.78 in 9 mi WSW 2.2 mph - -  
3:40 AM 71 °F - 61 °F 63% 29.75 in 9 mi SW 2.2 mph - -  
6:38 AM 68 °F - 58 °F 61% 29.80 in 9 mi West 2.2 mph - -  
6:40 AM 60.8 °F - 50.0 °F 68% 29.78 in 5.0 mi Calm Calm - N/A   Clear
7:42 AM 62.6 °F - 51.8 °F 68% 29.89 in 6.0 mi Calm Calm - N/A   Clear
8:43 AM 71.6 °F - 53.6 °F 53% 29.91 in 6.0 mi Calm Calm - N/A   Clear
9:43 AM 77.0 °F - 55.4 °F 47% 29.82 in 5.0 mi SE 4.6 mph - N/A   Clear
9:45 AM 78 °F - 59 °F 43% 29.85 in 9 mi East 2.2 mph - -   Clear
10:50 AM 84.2 °F 82.8 °F 53.6 °F 35% 29.90 in 5.0 mi East 4.6 mph - N/A   Clear
11:40 AM 87.8 °F - 51.8 °F 29% 29.87 in 5.0 mi Calm Calm - N/A   Clear
12:44 PM 93.2 °F - 51.8 °F 24% 29.73 in 5.0 mi North 4.6 mph - N/A   Clear
12:45 PM 92 °F - 61 °F 26% 29.77 in 9 mi SE 2.2 mph - -   Clear
1:44 PM 93.2 °F - 51.8 °F 24% 29.80 in 5.0 mi East 4.6 mph - N/A   Clear
2:43 PM 96.8 °F - 51.8 °F 22% 29.76 in 5.0 mi SSE 4.6 mph - N/A   Clear
3:40 PM 98 °F - 67 °F 27% 29.64 in 9 mi NW 4.5 mph - -   Clear
3:49 PM 98.6 °F - 50.0 °F 19% 29.61 in 3.0 mi NNW 6.9 mph - N/A   Haze
4:45 PM 100.4 °F - 50.0 °F 18% 29.69 in 4.0 mi NNE 8.1 mph - N/A   Clear
5:43 PM 96.8 °F 96.2 °F 59.0 °F 28% 29.70 in 7.0 mi NNW 20.7 mph - N/A   Clear
6:40 PM 87 °F - 70 °F 49% 29.63 in 9 mi NW 4.5 mph - -   Clear
6:53 PM 87.8 °F 88.5 °F 62.6 °F 43% 29.64 in 8.0 mi WNW 13.8 mph 25.3 mph N/A   Clear
7:54 PM 84.2 °F 85.6 °F 64.4 °F 51% 29.78 in 8.0 mi NW 11.5 mph 23.0 mph N/A   Clear
8:45 PM 80.6 °F 82.3 °F 64.4 °F 58% 29.82 in 8.0 mi NW 15.0 mph - N/A   Clear
9:45 PM 78 °F - 70 °F 71% 29.72 in 9 mi NW 4.5 mph - -   Clear
9:51 PM 78.8 °F - 66.2 °F 65% 29.74 in 7.0 mi NW 11.5 mph - N/A   Clear
10:41 PM 78.8 °F - 64.4 °F 61% 29.87 in 7.0 mi NNW 6.9 mph - N/A   Clear